sat.trackr.live / text

‹ back to catalog

STARLINK-1718

NORAD 46674 · 2020-073E

PAYLOAD ACTIVE UNKNOWN

§ Identity

Operator
Country
US
Launch date
2020-10-18
Launch site
AFETR
Launch vehicle
Mass (kg)
RCS (m²)

Purposes: comms

External: N2YO · Heavens-Above · Gunter

§ Orbital elements

Epoch: 2026-08-24T03:06:32.840928Z

Period
87.95 min
Inclination
53.0184°
Eccentricity
0.0010187
Mean motion
16.37224108 rev/d
Perigee alt
166.5 km
Apogee alt
179.9 km
Semi-major
6,551.3 km
B*
6.1377e-4
RAAN
111.9298°
Arg perigee
258.7606°
Mean anomaly
101.2295°
Rev number
32,373

§ Raw data

STARLINK-17181 46674U 20073E   26236.12954677  .06204112  12259-4  61377-3 0  99952 46674  53.0184 111.9298 0010187 258.7606 101.2295 16.37224108323734

JSON: /api/v1/satellites/46674 · /tle

For live sub-satellite position, see the globe view (requires WebGL).

§ Visibility from observer

Set your observer location to see the next 7 days of passes ≥ 10°. The values pass through the URL so the page stays shareable.

No JS? Fill the form by hand. The geolocation button needs JavaScript.